Regional Weather Roundup
Issued by NWS Charleston, SC

Current Version | Previous Version | Text Only | Print | Product List | Glossary Off
Versions: 1 2 3 4 5 6 7 8 9 10 11 12 13 14 15 16 17 18 19 20 21 22 23 24 25 26 27 28 29 30 31 32 33 34 35 36 37 38 39 40 41 42 43 44 45 46 47 48 49 50
000 ASUS42 KCHS 260012 RWRCHS Regional Weather Roundup National Weather Service Charleston SC 800 PM EDT WED APR 25 2018 NOTE: "fair" indicates few or no clouds below 12,000 feet with no significant weather and/or obstructions to visibility. Not all stations are quality controlled. Use data with caution, especially dewpoint observations. SCZ027-030-031-034>040-042>050-260100- ...Southeast South Carolina... CITY SKY/WX TMP DP RH WIND PRES REMARKS N Charleston FAIR 74 55 51 W7 29.80R 6HR MIN TEMP: 74; 6HR MAX TEMP: 81; Waterfront Prk N/A 76 55 47 W5 29.63R Mount Pleasant FAIR 72 63 73 CALM 29.80R Johns Island FAIR 73 57 56 CALM 29.81R Pinopolis N/A N/A N/A N/A W6 29.72R Moncks Corner FAIR 68 55 64 CALM 29.80R Summerville FAIR 70 55 60 W3 29.81R Beaufort MCAS FAIR 72 56 57 W7 29.82R 6HR MIN TEMP: 72; 6HR MAX TEMP: 80; Beaufort Arpt FAIR 72 54 53 W7 29.82R Hilton Head Is CLOUDY 72 54 53 W7 29.84R Walterboro FAIR 72 54 53 W6 29.82R Allendale FAIR 72 54 53 CALM 29.81R ...Southern Midlands and Pee Dee... CITY SKY/WX TMP DP RH WIND PRES REMARKS Georgetown MOCLDY 70 55 60 W5 29.80R Kingstree FAIR 70 59 68 CALM 29.79R Orangeburg FAIR 71 55 56 CALM 29.80R 6HR MIN TEMP: 71; 6HR MAX TEMP: 77; Barnwell NOT AVBL Aiken FAIR 68 52 56 W7 29.85R Manning FAIR 64 54 68 CALM 29.79R Columbia FAIR 74 55 51 NW7 29.79R 6HR MIN TEMP: 74; 6HR MAX TEMP: 79; Sumter FAIR 70 54 56 W5 29.77R 6HR MIN TEMP: 70; 6HR MAX TEMP: 78; Florence MOCLDY 73 56 54 W5 29.78R 6HR MIN TEMP: 73; 6HR MAX TEMP: 79; Myrtle Beach FAIR 72 57 59 W6 29.79R N Myrtle Beach FAIR 71 56 58 CALM 29.77R 6HR MIN TEMP: 68; 6HR MAX TEMP: 76; $$ GAZ063-065-086>088-099>101-113>116-118-119-134>141-150-260100- ...Southeast Georgia... CITY SKY/WX TMP DP RH WIND PRES REMARKS Savannah Arpt MOCLDY 73 55 53 W7 29.84R 6HR MIN TEMP: 73; 6HR MAX TEMP: 79; Hunter AAF CLOUDY 73 54 51 W9 29.82R 6HR MIN TEMP: 73; 6HR MAX TEMP: 79; 6HR PCP: TRACE; Fort Stewart CLOUDY 72 54 52 W6 29.83R 6HR MIN TEMP: 72; 6HR MAX TEMP: 79; Statesboro FAIR 70 50 49 W8 29.84S Sylvania FAIR 69 58 66 W3 29.84S Claxton CLOUDY 73 56 56 W5 29.85R ...CSRA, Central and far Southeast Georgia... CITY SKY/WX TMP DP RH WIND PRES REMARKS Thomson FAIR 67 56 65 NW6 29.89R Augusta-Bush FAIR 70 54 56 W5 29.81S 6HR MIN TEMP: 70; 6HR MAX TEMP: 79; Augusta-Daniel FAIR 71 53 52 VRB7 29.83R Swainsboro FAIR 68 55 64 W5 29.87R Vidalia FAIR 70 50 49 W5 29.87R Eastman FAIR 69 45 41 W6 29.91S Hazlehurst MOCLDY 71 54 53 CALM 29.86S Alma FAIR 73 54 51 NW9 29.86R 6HR MIN TEMP: 73; 6HR MAX TEMP: 80; Waycross FAIR 73 54 51 N6 29.85S Jesup FAIR 73 52 46 CALM 29.86R Baxley FAIR 70 54 56 NW7 29.86S Brunswick FAIR 72 54 53 NW6 29.85R Saint Simons FAIR 76 55 48 NW8 29.83R 6HR MIN TEMP: 76; 6HR MAX TEMP: 81; $$ SCZ027-028-034-036>038-045-046-048>050-GAZ119-141-260100- ...Lake and Supplemental Coastal Observations... STATION/POSITION TIME TEMP WIND PRES WAVE SWELL AIR SEA DIR/SP/G HT/PER HT/PER/DIR (UTC) (F) (DEG/KT/KT) (MB) (FT/S) (FT/S/D) Winyah Bay 2245 76 290/ 7 1008.0 Lake Murray 2320 73 290/ 3/ 6 1008.1S ACE Basin NERRS NOT AVBL Fort Pulaski 2348 72 67 310/ 11/ 12 1010.5R Sapelo Island 2300 75 310/ 11 1010.0 $$ ANZ835-935-AMZ111-154-330-350-352-354-370-450-454-472-260100- ...C-MAN and Buoy Observations... STATION/POSITION TIME TEMP WIND PRES WAVE SWELL AIR SEA DIR/SP/G HT/PER HT/PER/DIR (UTC) (F) (DEG/KT/KT) (MB) (FT/S) (FT/S/D) Buoy 41004 2350 69 240/ 16/ 19 1009.2R 5/ 9 3/110/ 9 Buoy 41008 2350 69 66 270/ 4/ 6 1009.9R 3/ 9 3/110/ 9 Folly Beach CMAN 2300 67 210/ 14/ 16 1009.3R Capers Nearshore 2308 67 65 230/ 14/ 17 1008.9R Fripp Nearshore 2308 70 67 270/ 6/ 8 1008.8R STATION/POSITION TIME TEMP WIND PRES WAVE SWELL AIR SEA DIR/SP/G HT/PER HT/PER/DIR (UTC) (F) (DEG/KT/KT) (MB) (FT/S) (FT/S/D) 5E St. Marys GA 2330 70 N/A 2/ 9 Frying Pan Buoy 2350 69 70 240/ 17/ 23 1008.2R 7/10 5/120/10 Buoy 41025 2350 69 70 240/ 19/ 23 1006.4R 9/10 7/120/10 Cape Lookout NC 2300 230/ 11/ 16 1006.5R Buoy 41002 2350 73 74 240/ 14/ 17 1009.7R 7/ 9 5/120/ 9 Buoy 41010 2350 74 76 210/ 10/ 14 1012.1R 5/ 8 5/ 90/ 8 St Augustine FL 0000 76 67 250/ 2/ 2 1011.5R $$

USA.gov is the U.S. government's official web portal to all federal, state and local government web resources and services.